• Join FlightAware (Why Join?)
  • Login
  • US Flag 
01:43PM EDT


 

Airport Tracker/Info


-or-


 

Live Flight TrackerFlight Track Log ✈ N273SK ✈ 22-Apr-2013 ✈ KRIC - KJFK

Flight Track Log - Related Links

Times and Time Zones

All times are in EDT time to prevent confusion due to time zone crossing. See the N273SK flight status page for this flight to view local times or setup timezone preferences in your user account.

Time Position Orientation Groundspeed Altitude Reporting Facility
EDT Latitude Longitude Course Direction KTS MPH feet Rate Location/Type
06:38AM 37.5500 -77.3000 45° Northeast 163 188 2,000  Level Potomac TRACON
06:39AM 37.5833 -77.2667 38° Northeast 197 227 4,500 1,920 Climbing Potomac TRACON
06:39AM 37.6072 -77.2408 41° Northeast 214 246 5,100 1,800 Climbing Washington Center
06:40AM 37.7443 -77.0558 38° Northeast  Level FlightAware Approximate
06:40AM 37.6581 -77.1789 44° Northeast 226 260 7,400  Level Washington Center
06:41AM 37.8281 -76.9719 38° Northeast  Level FlightAware Approximate
06:41AM 37.7131 -77.1092 45° Northeast 252 290 9,000  Level Washington Center
06:42AM 37.9120 -76.8881 38° Northeast  Level FlightAware Approximate
06:42AM 37.7725 -77.0367 44° Northeast 270 311 10,300  Level Washington Center
06:43AM 37.9931 -76.8003 45° Northeast  Level FlightAware Approximate
06:43AM 37.8358 -76.9592 44° Northeast 293 337 12,000  Level Washington Center
06:44AM 37.9036 -76.8733 45° Northeast 317 365 13,900 1,740 Climbing Washington Center
06:45AM 37.9753 -76.7878 43° Northeast 335 386 15,500 1,320 Climbing Washington Center
06:46AM 38.0514 -76.6967 43° Northeast 347 399 16,600 720 Climbing Washington Center
06:47AM 38.1272 -76.5947 47° Northeast 371 427 17,000 180 Climbing Washington Center
06:48AM 38.2114 -76.4928 44° Northeast 394 453 17,000  Level Washington Center
06:49AM 38.2978 -76.3908 43° Northeast 412 474 17,000  Level Washington Center
06:50AM 38.3942 -76.3044 35° Northeast 412 474 17,000  Level Washington Center
06:51AM 38.4886 -76.2150 37° Northeast 418 481 17,000  Level Washington Center
06:52AM 38.5869 -76.1256 35° Northeast 426 490 17,000  Level Washington Center
06:53AM 38.6853 -76.0358 35° Northeast 433 498 17,000  Level Washington Center
06:54AM 38.7772 -75.9458 37° Northeast 428 493 17,000  Level Washington Center
06:55AM 38.8714 -75.8608 35° Northeast 422 486 17,000  Level Washington Center
06:56AM 38.9631 -75.7758 36° Northeast 416 479 17,000  Level Washington Center
06:57AM 39.0550 -75.6878 37° Northeast 410 472 17,000  Level Washington Center
06:58AM 39.1175 -75.5675 56° Northeast 394 453 17,000  Level Washington Center
06:59AM 39.1633 -75.4336 66° East 400 460 17,000  Level Washington Center
07:00AM 39.2108 -75.2969 66° East 400 460 17,000 -60 Level Washington Center
07:03AM 39.3192 -74.9814 66° East 421 484 16,900 -60 Descending New York Center
07:04AM 39.3656 -74.8444 66° East 416 479 16,900  Level New York Center
07:05AM 39.4142 -74.7050 66° East 416 479 16,900  Level New York Center
07:06AM 39.4622 -74.5731 65° Northeast 411 473 16,900  Level New York Center
07:07AM 39.5356 -74.4344 56° Northeast 411 473 16,900  Level New York Center
07:08AM 39.5933 -74.3217 56° Northeast 421 484 16,900  Level New York Center
07:09AM 39.6736 -74.2122 46° Northeast 421 484 16,900 -600 Level New York Center
07:10AM 39.7744 -74.1119 37° Northeast 409 471 15,800 -1,380 Descending New York Center
07:11AM 39.8625 -74.0242 37° Northeast 409 471 14,200 -1,740 Descending New York Center
07:12AM 39.9375 -73.9464 38° Northeast 372 428 12,400 -1,620 Descending New York Center
07:13AM 40.0014 -73.8953 31° Northeast 316 364 11,000 -840 Descending New York Center
07:14AM 40.0614 -73.8303 40° Northeast 268 308 10,800 -660 Descending New York Center
07:15AM 40.0928 -73.7447 64° Northeast 253 291 9,700 -1,320 Descending New York Center
07:16AM 40.1333 -73.7000 40° Northeast 245 282 8,500 -1,500 Descending New York TRACON
07:17AM 40.2000 -73.6667 21° North 237 273 7,100 -1,500 Descending New York TRACON
07:17AM 40.2167 -73.7333 288° West 249 287 5,700 -1,560 Descending New York TRACON
07:18AM 40.2167 -73.8167 270° West 239 275 4,200 -1,260 Descending New York TRACON
07:20AM 40.2333 -73.9000 285° West 249 287 3,100 -600 Descending New York TRACON
07:20AM 40.2833 -73.9500 323° Northwest 221 254 3,100  Level New York TRACON
07:21AM 40.2933 -73.9656 310° West 225 259 3,100 -120 Level New York Center
07:22AM 40.3386 -73.9894 338° Northwest 214 246 3,000  Descending New York Center
07:23AM 40.3942 -74.0111 343° North 191 220 3,100 60 Climbing New York Center
07:23AM 40.4167 -74.0167 349° North 185 213 3,100 -120 Level New York TRACON
07:24AM 40.4667 -74.0167 360° North 169 194 3,000  Descending New York TRACON
07:25AM 40.5000 -73.9833 37° Northeast 151 174 3,100 -240 Climbing New York TRACON
07:26AM 40.5333 -73.9500 37° Northeast 154 177 2,600 -840 Descending New York TRACON
07:27AM 40.5667 -73.9333 21° North 145 167 1,600 -540 Descending New York TRACON
07:28AM 40.6000 -73.9000 37° Northeast 139 160 1,600 -300 Level New York TRACON
07:29AM 40.6333 -73.8833 21° North 132 152 1,100 -540 Descending New York TRACON